Weather History for North Adams, MA

Change the Weather History Date:

Wednesday, September 3, 2014

  Actual Average Record
Temperature  
Mean Temperature 68 °F -  
Max Temperature 78 °F 74 °F 89 °F (2010)
Min Temperature 55 °F 51 °F 45 °F (2001)
Cooling Degree Days 2    
Growing Degree Days 18 (Base 50)    
Moisture  
Dew Point 60 °F    
Average Humidity 77    
Maximum Humidity 96    
Minimum Humidity 48    
Precipitation  
Precipitation 0.04 in - - ()
Sea Level Pressure  
Sea Level Pressure 29.96 in    
Wind  
Wind Speed 6 mph (West)    
Max Wind Speed 12 mph    
Max Gust Speed 20 mph    
Visibility 10 miles    
Events Rain    
Averages and records for this station are not official NWS values.
T = Trace of Precipitation, MM = Missing Value Source: NWS Daily Summary

Daily Weather History Graph

Daily Weather History Graph

Search for Another Location

Airport:

Trip Planner

Search our weather history database for the weather conditions in past years. The results will help you decide how hot, cold, wet, or windy it might be!

Date:

Astronomy

Sep. 03, 2014 Rise Set
Actual Time 6:19 AM EDT 7:23 PM EDT
Civil Twilight 5:50 AM EDT 7:52 PM EDT
Nautical Twilight 5:16 AM EDT 8:26 PM EDT
Astronomical Twilight 4:39 AM EDT 9:03 PM EDT
Moon 3:07 PM EDT (9/3) 12:06 AM EDT (9/3)
Length of Visible Light 14h 01m
Length of Day
13h 04m
Waxing Gibbous, 63% of the Moon is Illuminated
Sep 3
Waxing Gibbous
Sep 8
Full
Sep 15
Last Quarter
Sep 24
New
Oct 1
First Quarter

Hourly Weather History & Observations

Time (EDT) Temp. Dew Point Humidity Pressure Visibility Wind Dir Wind Speed Gust Speed Precip Events Conditions
12:04 AM 69.1 °F 66.9 °F 93% 29.79 in 5.0 mi West 5.8 mph - 0.02 in Rain Light Rain
12:41 AM 69.1 °F 66.9 °F 93% 29.80 in 10.0 mi Variable 3.5 mph - 0.04 in   Overcast
12:52 AM 68.0 °F 66.9 °F 96% 29.80 in 10.0 mi West 4.6 mph - 0.04 in   Overcast
1:52 AM 68.0 °F 64.9 °F 90% 29.81 in 10.0 mi West 6.9 mph - N/A   Overcast
2:52 AM 66.9 °F 62.1 °F 84% 29.84 in 10.0 mi West 10.4 mph 18.4 mph N/A   Mostly Cloudy
3:17 AM 66.0 °F 61.0 °F 84% 29.86 in 10.0 mi West 8.1 mph 17.3 mph N/A   Mostly Cloudy
3:52 AM 66.0 °F 60.1 °F 81% 29.86 in 10.0 mi West 6.9 mph 17.3 mph N/A   Overcast
4:02 AM 66.0 °F 60.1 °F 81% 29.87 in 10.0 mi West 8.1 mph - N/A   Overcast
4:42 AM 64.9 °F 60.1 °F 84% 29.88 in 10.0 mi West 6.9 mph - N/A   Overcast
4:52 AM 64.9 °F 60.1 °F 84% 29.88 in 10.0 mi West 5.8 mph - N/A   Overcast
4:59 AM 64.9 °F 60.1 °F 84% 29.89 in 10.0 mi West 4.6 mph - N/A   Overcast
5:52 AM 64.9 °F 59.0 °F 81% 29.90 in 10.0 mi WSW 11.5 mph 19.6 mph N/A   Partly Cloudy
6:52 AM 63.0 °F 59.0 °F 87% 29.93 in 10.0 mi West 8.1 mph - N/A   Clear
7:52 AM 64.9 °F 59.0 °F 81% 29.96 in 10.0 mi West 8.1 mph 18.4 mph N/A   Partly Cloudy
8:52 AM 66.9 °F 59.0 °F 76% 29.97 in 10.0 mi West 10.4 mph 18.4 mph N/A   Partly Cloudy
9:52 AM 70.0 °F 57.0 °F 63% 29.99 in 10.0 mi West 9.2 mph 19.6 mph N/A   Clear
10:52 AM 72.0 °F 57.9 °F 61% 30.00 in 10.0 mi Variable 4.6 mph - N/A   Partly Cloudy
11:52 AM 72.0 °F 57.0 °F 59% 30.01 in 10.0 mi Variable 3.5 mph - N/A   Scattered Clouds
12:52 PM 73.9 °F 59.0 °F 59% 30.01 in 10.0 mi Variable 5.8 mph - N/A   Scattered Clouds
1:52 PM 75.9 °F 59.0 °F 56% 30.01 in 10.0 mi Variable 5.8 mph - N/A   Partly Cloudy
2:52 PM 77.0 °F 57.0 °F 50% 30.01 in 10.0 mi West 8.1 mph - N/A   Mostly Cloudy
3:52 PM 78.1 °F 57.0 °F 48% 30.01 in 10.0 mi Variable 5.8 mph - N/A   Partly Cloudy
5:52 PM 75.0 °F 57.9 °F 55% 30.04 in 10.0 mi West 4.6 mph - N/A   Clear
6:52 PM 72.0 °F 57.9 °F 61% 30.05 in 10.0 mi West 3.5 mph - N/A   Clear
7:52 PM 64.9 °F 60.1 °F 84% 30.08 in 10.0 mi Calm Calm - N/A   Clear
8:52 PM 62.1 °F 59.0 °F 90% 30.10 in 10.0 mi East 3.5 mph - N/A   Clear
9:52 PM 59.0 °F 57.0 °F 93% 30.12 in 10.0 mi Calm Calm - N/A   Clear
10:52 PM 57.0 °F 55.9 °F 96% 30.13 in 10.0 mi Calm Calm - N/A   Clear
11:52 PM 55.9 °F 54.0 °F 93% 30.14 in 9.0 mi Calm Calm - N/A   Clear